Simultaneous Nadir Overpasses (SNOs) Predictions

Prediction of SNOs between LANDSAT-8 and METOP-A Satellite Orbit:

Table of predicted SNOs for the next 14.0 days since TLE Epoch: 8/22/2020
Index Date (LANDSAT-8) Time (LANDSAT-8) Lat,Lon (LANDSAT-8) SZA (LANDSAT-8 ) Date (METOP-A) Time (METOP-A) Lat,Lon (METOP-A) SZA (METOP-A ) Distance(km) Time Diff (sec)
1 08/22/2020 21:19:22 81.46, -93.60 72.68 08/22/2020 21:18:49 81.46, -93.74 72.65 2.35 33
2 08/22/2020 22:08:49 -81.46, 73.99 107.32 08/22/2020 22:09:29 -81.45, 73.89 107.31 1.71 40
3 08/25/2020 16:53:39 81.46, -27.22 73.65 08/25/2020 16:53:12 81.45, -27.06 73.66 2.66 27
4 08/25/2020 17:43:06 -81.46, 140.40 106.34 08/25/2020 17:43:53 -81.46, 140.21 106.34 3.15 47
5 08/28/2020 12:27:56 81.46, 39.16 74.65 08/28/2020 12:27:36 81.46, 39.21 74.65 0.81 20
6 08/28/2020 13:17:23 -81.46,-153.19 105.34 08/28/2020 13:18:16 -81.45,-153.09 105.31 1.90 53
7 08/31/2020 08:02:12 81.45, 105.55 75.67 08/31/2020 08:01:59 81.46, 105.47 75.66 1.34 13
8 08/31/2020 08:51:39 -81.45, -86.78 104.31 08/31/2020 08:52:39 -81.45, -86.79 104.29 0.63 60
9 09/03/2020 03:36:29 81.45, 171.93 76.71 09/03/2020 03:36:22 81.45, 172.12 76.73 3.04 7
